SCP
6 4 5 5 4 3 4 3 2 1 1 1 0 0 0 0 1 1 1 1 0 0 0 0 0 0 0 0 0 0 0 0 0 0 0 0 0 0
7 7 5 4 3 4 4 5 3 2 1 1 1 0 0 1 1 1 1 0 0 0 0 0 0 0 0 0 0 0 0 0 0 0 0 0 0 0
5 5 4 4 3 3 4 4 2 2 0 1 1 1 1 0 0 1 1 1 1 0 0 0 0 0 0 0 0 0 0 0 0 0 0 0 0 0
3 3 3 3 3 3 3 2 0 1 1 0 0 0 0 0 0 1 1 1 1 1 0 0 0 0 -0 0 0 0 0 0 0 0 0 0 0 0
3 3 3 2 3 3 3 2 1 1 0 0 0 0 -0 0 0 0 1 0 1 0 0 0 0 0 0 0 0 0 0 0 0 0 0 0 0 0
2 3 3 1 2 2 2 1 1 0 0 0 0 0 0 0 0 0 0 0 0 0 0 0 0 0 0 0 0 0 0 0 0 0 0 0 0 0
3 2 2 1 1 1 1 1 1 0 0 0 0 0 0 0 -0 -0 -0 0 0 0 0 0 0 0 0 0 0 0 0 0 0 0 0 0 0 0
2 1 1 0 0 0 0 0 0 0 0 0 0 0 0 0 0 0 0 -0 -0 0 0 0 0 0 0 0 0 0 0 0 0 0 0 0 0 0
1 2 1 1 0 0 0 0 0 0 0 0 0 0 0 0 0 0 0 0 0 0 0 -0 0 0 0 0 0 0 0 0 0 0 0 0 0 0
1 1 1 1 0 0 0 0 0 0 0 0 0 0 0 0 0 0 0 0 -0 0 0 -0 -0 0 0 0 0 0 0 0 0 0 0 0 0 0
0 1 1 1 0 0 1 1 1 0 0 0 0 0 0 0 0 -0 -0 -0 -0 0 0 0 0 0 0 0 0 0 0 0 -0 0 0 0 0 0
-0 1 1 1 1 0 0 1 1 0 0 0 0 0 0 -0 -0 0 0 -0 -0 0 0 0 0 0 0 0 0 0 0 0 0 0 0 0 0 0
0 0 0 0 0 0 0 1 0 0 0 0 0 0 0 0 0 0 0 0 0 -0 -0 0 0 0 0 0 0 0 0 0 0 0 0 0 0 0
1 1 1 0 0 0 0 0 0 0 0 0 0 0 0 0 0 -0 0 0 0 0 0 0 0 0 0 -0 0 0 0 0 0 0 0 0 0 0
1 0 0 0 0 0 0 0 0 0 0 0 0 0 0 0 0 -0 0 0 -0 0 0 0 0 0 0 0 0 0 0 0 0 0 0 0 0 0
0 0 0 0 0 0 0 0 0 0 0 0 0 0 0 0 -0 0 0 0 -0 -0 0 0 0 0 0 -0 0 0 0 0 0 0 0 0 0 0
0 0 0 0 0 0 0 0 0 0 0 0 0 0 0 0 0 0 0 -0 -0 -0 -0 0 0 0 0 0 0 0 0 0 0 0 0 0 0 0
0 0 0 0 0 0 0 0 0 0 0 0 0 0 0 0 -0 -0 0 -0 -0 -0 -0 -0 0 0 0 0 -0 0 0 0 0 0 0 0 0 0
0 0 0 0 0 0 0 0 0 0 0 0 0 0 0 0 -0 0 0 -0 0 -0 -0 -0 0 0 0 0 0 -0 0 0 0 0 0 0 0 0
0 0 0 0 0 0 0 0 0 0 0 0 0 0 0 0 0 0 0 -0 -0 -0 -0 -0 0 0 0 0 0 0 -0 0 0 0 0 0 0 0
0 0 0 0 0 0 0 0 0 0 0 0 0 0 0 0 0 0 0 -0 -0 -0 0 0 0 0 0 0 0 0 0 -0 -0 0 0 0 0 0
0 0 0 0 0 0 0 0 0 0 0 0 0 0 0 0 0 0 0 -0 -0 -0 0 0 0 0 0 0 0 0 0 0 0 -0 -0 0 0 0
0 0 0 0 0 0 0 0 0 0 0 0 -0 0 0 0 0 0 0 -0 -0 0 0 0 0 0 0 0 0 0 0 0 0 0 0 0 0 0
Wind_Speed_500mb
56 45 42 42 47 39 47 43 43 40 49 53 51 45 41 47 44 46 52 52 49 51 55 63 70 72 66 62 55 50 47 45 39 40 39 39 40 40
49 45 40 37 38 40 45 47 49 54 55 52 46 43 44 38 42 49 52 53 54 57 54 50 56 60 64 57 59 52 48 47 42 43 39 39 41 40
41 37 32 34 37 43 40 39 48 57 47 48 45 36 40 39 49 54 55 57 57 56 57 48 44 47 47 56 56 51 50 49 44 45 40 41 41 39
32 30 34 26 34 38 48 47 43 47 37 42 45 41 40 37 41 43 48 55 50 53 50 49 37 41 46 47 48 49 53 50 47 45 42 41 42 41
32 32 35 40 36 23 25 29 25 28 32 38 44 47 51 42 40 41 46 53 54 56 52 55 43 37 47 52 54 55 53 54 50 45 43 41 43 42
37 46 36 40 42 39 36 34 39 40 37 36 37 38 39 41 42 28 33 39 45 43 46 43 49 43 44 54 54 56 56 55 50 46 42 41 44 43
43 40 41 32 31 31 25 25 25 26 29 32 35 41 42 41 47 54 55 41 42 43 44 50 53 52 44 47 52 58 58 54 49 45 41 43 45 44
40 42 36 36 41 29 30 33 28 29 31 34 34 36 39 42 47 49 54 60 64 55 49 46 43 49 44 45 45 47 48 47 46 44 42 45 47 46
51 47 48 37 37 37 39 35 33 32 30 26 33 35 40 46 46 45 50 52 52 46 53 62 50 50 43 38 31 23 21 34 43 47 46 48 48 47
52 55 51 50 45 41 40 39 39 37 34 32 35 39 38 44 48 52 58 66 70 65 59 73 62 56 44 41 38 30 26 36 38 40 48 49 49 49
53 67 63 62 55 47 43 48 48 46 44 44 37 33 37 49 55 53 60 60 66 60 51 57 59 50 38 40 30 26 29 33 36 38 45 48 49 50
99 52 67 69 68 65 65 60 60 64 61 56 42 49 50 56 52 47 53 58 62 61 44 42 49 34 29 34 33 31 28 30 32 34 40 44 47 50
68 77 64 64 71 74 73 70 73 71 64 59 58 60 59 57 58 52 53 56 58 58 58 18 16 18 20 18 29 28 25 25 26 27 32 38 42 47
73 76 74 76 81 88 85 80 80 75 76 73 67 69 63 61 60 58 48 56 54 56 45 29 25 21 24 28 21 23 22 17 17 18 17 22 31 38
71 72 69 67 74 79 78 81 84 82 82 75 69 68 67 68 66 64 57 58 57 50 41 36 27 29 24 33 28 20 22 17 15 15 16 15 14 18
74 80 78 75 62 65 77 82 82 78 74 69 67 69 73 68 68 57 57 59 55 48 34 33 32 30 33 35 33 24 25 15 16 19 14 11 16 15
86 91 85 83 84 77 62 71 81 79 76 71 63 60 66 65 63 50 52 58 49 50 31 18 29 36 34 32 24 20 24 26 16 22 20 17 16 14
68 79 79 75 75 69 61 65 74 78 71 50 49 55 61 58 58 49 53 47 46 39 35 30 30 35 30 22 21 18 14 20 24 20 21 17 15 12
48 65 72 67 64 71 68 67 62 61 59 55 54 55 56 55 53 50 55 41 42 35 44 36 36 39 25 15 16 22 16 8 10 20 20 22 16 20
43 57 59 63 64 62 72 70 66 62 65 61 54 50 53 53 51 53 55 46 37 32 35 38 39 30 25 26 24 19 20 15 14 13 16 16 15 11
59 41 65 53 56 62 51 65 58 56 57 60 60 58 61 52 53 57 54 46 37 38 42 36 31 22 25 22 25 20 23 18 15 16 15 10 7 7
82 49 50 70 53 44 53 63 51 48 49 53 52 47 47 48 56 58 51 44 37 44 31 30 24 18 18 21 25 28 24 19 16 12 14 13 9 7
96 82 42 65 69 49 39 39 40 41 49 50 55 59 62 69 62 53 44 38 38 37 34 29 28 27 23 25 30 34 28 20 17 14 14 13 8 7
Wind_Direction_500mb
222 225 232 241 226 241 253 247 253 263 275 283 293 298 281 276 292 277 263 274 272 273 274 277 275 264 260 249 241 243 244 247 256 262 259 253 248 245
212 218 226 233 239 236 251 257 256 267 264 282 293 299 293 296 284 273 277 272 280 281 273 291 288 269 257 247 244 237 243 245 253 261 258 250 251 247
203 204 216 228 242 245 241 254 263 272 260 286 287 293 294 291 286 287 290 295 293 286 275 281 288 273 253 253 241 235 241 243 250 259 256 249 248 242
205 205 224 235 246 239 232 252 263 282 296 294 296 294 292 297 290 295 296 289 292 294 283 281 291 273 261 252 239 247 240 242 247 255 253 247 245 239
189 195 223 231 225 224 232 249 258 255 264 276 281 280 287 298 316 310 297 291 294 297 291 281 288 279 259 249 255 245 238 240 244 252 249 243 243 240
235 227 221 219 233 235 231 237 248 258 265 273 284 294 303 303 307 314 309 298 297 294 295 284 290 284 260 258 253 241 241 237 243 250 246 240 240 239
209 211 210 211 212 232 225 238 244 251 264 270 272 279 286 291 291 295 300 302 293 297 294 295 292 288 273 253 253 247 238 233 241 246 243 239 238 237
207 207 204 205 214 220 227 227 243 260 271 279 287 294 301 301 302 301 293 294 296 288 292 291 297 292 270 257 248 245 240 239 243 246 242 238 237 237
211 209 210 211 223 229 237 245 243 256 274 286 294 301 308 315 313 304 301 297 290 285 280 283 281 282 269 269 248 231 241 259 252 249 243 237 236 237
223 222 221 215 225 233 241 249 257 267 274 283 289 300 305 310 312 301 294 292 283 279 283 280 273 277 259 249 248 244 239 257 269 257 241 236 235 237
229 222 226 230 223 233 237 243 256 265 262 267 289 295 287 299 308 296 294 293 291 290 289 283 269 261 255 251 239 243 249 260 272 256 239 235 235 237
235 225 227 231 241 239 235 239 245 262 266 271 266 272 286 299 310 306 304 291 291 296 298 280 263 246 237 234 233 236 248 256 268 256 236 232 233 237
248 255 241 237 241 244 245 244 251 262 263 264 272 283 289 300 304 308 299 290 290 282 283 270 281 259 227 244 250 237 252 254 266 247 235 233 234 239
242 241 246 247 247 243 244 244 250 254 259 264 273 280 286 298 301 306 293 284 289 282 280 286 275 224 225 232 234 228 231 259 263 245 239 229 234 238
245 242 240 245 249 251 251 246 247 250 256 261 266 275 287 299 299 301 291 290 288 271 266 258 272 218 247 233 241 228 214 244 234 231 235 228 249 257
241 244 239 240 243 251 248 245 240 242 247 253 263 276 287 293 299 301 286 289 291 271 261 250 237 227 246 233 228 225 222 214 224 216 225 224 237 247
245 241 242 242 245 249 251 241 239 238 241 251 263 274 286 292 300 297 283 292 275 276 248 240 241 242 231 217 214 218 213 217 228 212 215 222 231 267
229 231 232 236 239 237 245 241 236 236 242 244 252 271 277 273 294 284 281 287 269 263 231 224 243 216 214 201 207 225 209 216 224 216 207 182 194 217
234 226 228 229 232 231 231 231 229 233 242 245 254 265 263 262 287 274 278 273 268 253 235 234 231 211 194 202 206 211 212 191 194 187 192 193 199 212
247 227 225 227 229 234 232 232 232 236 246 253 250 252 259 266 273 268 281 260 258 248 224 234 225 216 199 213 205 192 194 180 147 148 181 186 190 208
239 229 216 220 228 231 232 232 232 234 240 248 253 253 259 261 261 266 274 259 248 222 244 240 204 200 203 202 192 172 175 176 172 178 165 156 189 218
235 223 223 219 224 228 232 234 238 238 238 242 244 247 251 251 260 273 262 252 245 240 230 194 189 190 182 190 178 164 156 144 145 151 169 177 191 210
231 222 216 224 220 230 238 238 242 250 254 259 252 249 254 253 260 261 250 249 222 227 191 177 173 172 180 179 164 151 136 125 125 117 134 131 120 95
Wind_Speed_850mb
56 45 42 42 47 39 47 43 43 40 49 53 51 45 41 47 44 46 52 52 49 51 55 63 70 72 66 62 55 50 47 45 39 40 39 39 40 40
49 45 40 37 38 40 45 47 49 54 55 52 46 43 44 38 42 49 52 53 54 57 54 50 56 60 64 57 59 52 48 47 42 43 39 39 41 40
41 37 32 34 37 43 40 39 48 57 47 48 45 36 40 39 49 54 55 57 57 56 57 48 44 47 47 56 56 51 50 49 44 45 40 41 41 39
32 30 34 26 34 38 48 47 43 47 37 42 45 41 40 37 41 43 48 55 50 53 50 49 37 41 46 47 48 49 53 50 47 45 42 41 42 41
32 32 35 40 36 23 25 29 25 28 32 38 44 47 51 42 40 41 46 53 54 56 52 55 43 37 47 52 54 55 53 54 50 45 43 41 43 42
37 46 36 40 42 39 36 34 39 40 37 36 37 38 39 41 42 28 33 39 45 43 46 43 49 43 44 54 54 56 56 55 50 46 42 41 44 43
43 40 41 32 31 31 25 25 25 26 29 32 35 41 42 41 47 54 55 41 42 43 44 50 53 52 44 47 52 58 58 54 49 45 41 43 45 44
40 42 36 36 41 29 30 33 28 29 31 34 34 36 39 42 47 49 54 60 64 55 49 46 43 49 44 45 45 47 48 47 46 44 42 45 47 46
51 47 48 37 37 37 39 35 33 32 30 26 33 35 40 46 46 45 50 52 52 46 53 62 50 50 43 38 31 23 21 34 43 47 46 48 48 47
52 55 51 50 45 41 40 39 39 37 34 32 35 39 38 44 48 52 58 66 70 65 59 73 62 56 44 41 38 30 26 36 38 40 48 49 49 49
53 67 63 62 55 47 43 48 48 46 44 44 37 33 37 49 55 53 60 60 66 60 51 57 59 50 38 40 30 26 29 33 36 38 45 48 49 50
99 52 67 69 68 65 65 60 60 64 61 56 42 49 50 56 52 47 53 58 62 61 44 42 49 34 29 34 33 31 28 30 32 34 40 44 47 50
68 77 64 64 71 74 73 70 73 71 64 59 58 60 59 57 58 52 53 56 58 58 58 18 16 18 20 18 29 28 25 25 26 27 32 38 42 47
73 76 74 76 81 88 85 80 80 75 76 73 67 69 63 61 60 58 48 56 54 56 45 29 25 21 24 28 21 23 22 17 17 18 17 22 31 38
71 72 69 67 74 79 78 81 84 82 82 75 69 68 67 68 66 64 57 58 57 50 41 36 27 29 24 33 28 20 22 17 15 15 16 15 14 18
74 80 78 75 62 65 77 82 82 78 74 69 67 69 73 68 68 57 57 59 55 48 34 33 32 30 33 35 33 24 25 15 16 19 14 11 16 15
86 91 85 83 84 77 62 71 81 79 76 71 63 60 66 65 63 50 52 58 49 50 31 18 29 36 34 32 24 20 24 26 16 22 20 17 16 14
68 79 79 75 75 69 61 65 74 78 71 50 49 55 61 58 58 49 53 47 46 39 35 30 30 35 30 22 21 18 14 20 24 20 21 17 15 12
48 65 72 67 64 71 68 67 62 61 59 55 54 55 56 55 53 50 55 41 42 35 44 36 36 39 25 15 16 22 16 8 10 20 20 22 16 20
43 57 59 63 64 62 72 70 66 62 65 61 54 50 53 53 51 53 55 46 37 32 35 38 39 30 25 26 24 19 20 15 14 13 16 16 15 11
59 41 65 53 56 62 51 65 58 56 57 60 60 58 61 52 53 57 54 46 37 38 42 36 31 22 25 22 25 20 23 18 15 16 15 10 7 7
82 49 50 70 53 44 53 63 51 48 49 53 52 47 47 48 56 58 51 44 37 44 31 30 24 18 18 21 25 28 24 19 16 12 14 13 9 7
96 82 42 65 69 49 39 39 40 41 49 50 55 59 62 69 62 53 44 38 38 37 34 29 28 27 23 25 30 34 28 20 17 14 14 13 8 7
Wind_Direction_850mb
222 225 232 241 226 241 253 247 253 263 275 283 293 298 281 276 292 277 263 274 272 273 274 277 275 264 260 249 241 243 244 247 256 262 259 253 248 245
212 218 226 233 239 236 251 257 256 267 264 282 293 299 293 296 284 273 277 272 280 281 273 291 288 269 257 247 244 237 243 245 253 261 258 250 251 247
203 204 216 228 242 245 241 254 263 272 260 286 287 293 294 291 286 287 290 295 293 286 275 281 288 273 253 253 241 235 241 243 250 259 256 249 248 242
205 205 224 235 246 239 232 252 263 282 296 294 296 294 292 297 290 295 296 289 292 294 283 281 291 273 261 252 239 247 240 242 247 255 253 247 245 239
189 195 223 231 225 224 232 249 258 255 264 276 281 280 287 298 316 310 297 291 294 297 291 281 288 279 259 249 255 245 238 240 244 252 249 243 243 240
235 227 221 219 233 235 231 237 248 258 265 273 284 294 303 303 307 314 309 298 297 294 295 284 290 284 260 258 253 241 241 237 243 250 246 240 240 239
209 211 210 211 212 232 225 238 244 251 264 270 272 279 286 291 291 295 300 302 293 297 294 295 292 288 273 253 253 247 238 233 241 246 243 239 238 237
207 207 204 205 214 220 227 227 243 260 271 279 287 294 301 301 302 301 293 294 296 288 292 291 297 292 270 257 248 245 240 239 243 246 242 238 237 237
211 209 210 211 223 229 237 245 243 256 274 286 294 301 308 315 313 304 301 297 290 285 280 283 281 282 269 269 248 231 241 259 252 249 243 237 236 237
223 222 221 215 225 233 241 249 257 267 274 283 289 300 305 310 312 301 294 292 283 279 283 280 273 277 259 249 248 244 239 257 269 257 241 236 235 237
229 222 226 230 223 233 237 243 256 265 262 267 289 295 287 299 308 296 294 293 291 290 289 283 269 261 255 251 239 243 249 260 272 256 239 235 235 237
235 225 227 231 241 239 235 239 245 262 266 271 266 272 286 299 310 306 304 291 291 296 298 280 263 246 237 234 233 236 248 256 268 256 236 232 233 237
248 255 241 237 241 244 245 244 251 262 263 264 272 283 289 300 304 308 299 290 290 282 283 270 281 259 227 244 250 237 252 254 266 247 235 233 234 239
242 241 246 247 247 243 244 244 250 254 259 264 273 280 286 298 301 306 293 284 289 282 280 286 275 224 225 232 234 228 231 259 263 245 239 229 234 238
245 242 240 245 249 251 251 246 247 250 256 261 266 275 287 299 299 301 291 290 288 271 266 258 272 218 247 233 241 228 214 244 234 231 235 228 249 257
241 244 239 240 243 251 248 245 240 242 247 253 263 276 287 293 299 301 286 289 291 271 261 250 237 227 246 233 228 225 222 214 224 216 225 224 237 247
245 241 242 242 245 249 251 241 239 238 241 251 263 274 286 292 300 297 283 292 275 276 248 240 241 242 231 217 214 218 213 217 228 212 215 222 231 267
229 231 232 236 239 237 245 241 236 236 242 244 252 271 277 273 294 284 281 287 269 263 231 224 243 216 214 201 207 225 209 216 224 216 207 182 194 217
234 226 228 229 232 231 231 231 229 233 242 245 254 265 263 262 287 274 278 273 268 253 235 234 231 211 194 202 206 211 212 191 194 187 192 193 199 212
247 227 225 227 229 234 232 232 232 236 246 253 250 252 259 266 273 268 281 260 258 248 224 234 225 216 199 213 205 192 194 180 147 148 181 186 190 208
239 229 216 220 228 231 232 232 232 234 240 248 253 253 259 261 261 266 274 259 248 222 244 240 204 200 203 202 192 172 175 176 172 178 165 156 189 218
235 223 223 219 224 228 232 234 238 238 238 242 244 247 251 251 260 273 262 252 245 240 230 194 189 190 182 190 178 164 156 144 145 151 169 177 191 210
231 222 216 224 220 230 238 238 242 250 254 259 252 249 254 253 260 261 250 249 222 227 191 177 173 172 180 179 164 151 136 125 125 117 134 131 120 95